Eglinton, United Kingdom

10:33 AM GMT on November 15, 2019 (GMT +0000)
Eglinton

Weather History for EGAE - October, 2019

Change the Weather History Date:

Wednesday, October 23, 2019

  Actual Average Record
Temperature  
Mean Temperature 54 °F -  
Max Temperature 55 °F 53 °F 62 °F (1996)
Min Temperature 51 °F 45 °F 33 °F (2003)
Degree Days  
Heating Degree Days 11    
Growing Degree Days 4 (Base 50)    
Moisture  
Dew Point 49 °F    
Average Humidity 85    
Maximum Humidity 94    
Minimum Humidity 77    
Precipitation  
Precipitation 0.00 in - - ()
Sea Level Pressure  
Sea Level Pressure 29.58 in    
Wind  
Wind Speed 18 mph ()    
Max Wind Speed 26 mph    
Max Gust Speed 41 mph    
Visibility 6.2 miles    
Events Rain    
Averages and records for this station are not official NWS values.
T = Trace of Precipitation, MM = Missing Value Source: Averaged Metar Reports

Daily Weather History Graph

Daily Weather History Graph

Search for Another Location

Airport or City:

Astronomy

Oct. 23, 2019 Rise Set
Actual Time 8:13 AM BST 6:11 PM BST
Civil Twilight 7:36 AM BST 6:48 PM BST
Nautical Twilight 6:53 AM BST 7:31 PM BST
Astronomical Twilight 6:11 AM BST 8:13 PM BST
Moon 12:59 AM BST (10/23) 5:00 PM BST (10/23)
Length of Visible Light 11h 12m
Length of Day
9h 58m
Waning Crescent, 29% of the Moon is Illuminated
Oct 23
Waning Crescent
Oct 28
New
Nov 4
First Quarter
Nov 12
Full
Nov 19
Last Quarter

Hourly Weather History & Observations

Time (BST) Temp. Dew Point Humidity Pressure Visibility Wind Dir Wind Speed Gust Speed Precip Events Conditions
6:20 AM 53.6 °F 48.2 °F 82% 29.74 in 6.2 mi SSW 17.3 mph - N/A   Partly Cloudy
6:50 AM 53.6 °F 48.2 °F 82% 29.74 in 6.2 mi SSW 15.0 mph - N/A   Scattered Clouds
7:20 AM 53.6 °F 48.2 °F 82% 29.71 in 6.2 mi SSW 17.3 mph - N/A   Scattered Clouds
7:50 AM 53.6 °F 48.2 °F 82% 29.71 in 6.2 mi SSW 18.4 mph - N/A   Scattered Clouds
8:20 AM 53.6 °F 46.4 °F 77% 29.71 in 6.2 mi SSW 15.0 mph 26.5 mph N/A   Partly Cloudy
8:50 AM 53.6 °F 48.2 °F 82% 29.68 in 6.2 mi SSW 16.1 mph - N/A   Partly Cloudy
9:20 AM 55.4 °F 48.2 °F 77% 29.68 in 6.2 mi SSW 21.9 mph 41.4 mph N/A   Partly Cloudy
9:50 AM 53.6 °F 48.2 °F 82% 29.68 in 6.2 mi SSW 25.3 mph 38.0 mph N/A   Scattered Clouds
10:20 AM 53.6 °F 48.2 °F 82% 29.68 in 6.2 mi South 17.3 mph 28.8 mph N/A   Scattered Clouds
10:50 AM 53.6 °F 48.2 °F 82% 29.65 in 6.2 mi SSW 17.3 mph 31.1 mph N/A   Scattered Clouds
11:20 AM 55.4 °F 48.2 °F 77% 29.62 in 6.2 mi SSW 26.5 mph 38.0 mph N/A   Scattered Clouds
11:50 AM 55.4 °F 48.2 °F 77% 29.62 in 6.2 mi SSW 26.5 mph 38.0 mph N/A Rain Light Rain
12:20 PM 53.6 °F 48.2 °F 82% 29.62 in 6.2 mi SSW 24.2 mph 35.7 mph N/A Rain Light Rain Showers
12:50 PM 53.6 °F 48.2 °F 82% 29.62 in 6.2 mi SSW 24.2 mph - N/A Rain Light Rain
1:20 PM 55.4 °F 50.0 °F 82% 29.59 in 6.2 mi SSW 21.9 mph - N/A Rain Light Rain
1:50 PM 53.6 °F 48.2 °F 82% 29.56 in 6.2 mi SSW 23.0 mph - N/A Rain Light Rain
2:20 PM 53.6 °F 50.0 °F 88% 29.56 in 6.2 mi SSW 24.2 mph - N/A Rain Light Rain
2:50 PM 53.6 °F 50.0 °F 88% 29.53 in 6.2 mi SSW 24.2 mph 35.7 mph N/A Rain Light Rain
3:20 PM 53.6 °F 50.0 °F 88% 29.53 in 6.2 mi SSW 19.6 mph 33.4 mph N/A Rain Light Rain
3:50 PM 53.6 °F 50.0 °F 88% 29.53 in 6.2 mi SSW 21.9 mph - N/A Rain Light Rain
4:20 PM 53.6 °F 50.0 °F 88% 29.50 in 6.2 mi SSW 21.9 mph - N/A Rain Light Rain
4:50 PM 53.6 °F 51.8 °F 94% 29.50 in 6.2 mi SSW 21.9 mph - N/A Rain Light Rain
5:20 PM 53.6 °F 50.0 °F 88% 29.50 in 6.2 mi South 24.2 mph - N/A Rain Light Rain
5:50 PM 53.6 °F 50.0 °F 88% 29.47 in 6.2 mi SSW 20.7 mph - N/A Rain Light Rain
6:20 PM 53.6 °F 50.0 °F 88% 29.47 in 6.2 mi SSW 19.6 mph - N/A Rain Light Rain
6:50 PM 53.6 °F 50.0 °F 88% 29.47 in 6.2 mi SSW 18.4 mph - N/A Rain Light Rain
7:20 PM 53.6 °F 50.0 °F 88% 29.47 in 6.2 mi SSW 19.6 mph - N/A Rain Light Rain
7:50 PM 53.6 °F 51.8 °F 94% 29.47 in 6.2 mi SSW 18.4 mph - N/A   Mostly Cloudy
8:20 PM 53.6 °F 51.8 °F 94% 29.47 in 6.2 mi WSW 13.8 mph - N/A   Scattered Clouds
8:50 PM 51.8 °F 48.2 °F 88% 29.47 in 6.2 mi SW 12.7 mph - N/A   Partly Cloudy